Flag for Poland Weather past 2 weeks in Zielona Góra, Poland

Now
36 °F

Passing clouds.


Feels Like: 31 °F
Forecast: 29 / 35 °F
Wind: 6 mph from Southwest

Location: Zielona Gora

Current Time: Jan 29, 2015 at 12:10:24 PM

Latest Report: Jan 29, 2015 at 11:00 AM


Visibility: 25 mi

Pressure: 29.32 "Hg

Humidity: 72%

Dew point: 28 °F

Location of Zielona GóraLocation

Historic Weather in Zielona Góra — Graph

°F

Zielona Góra temperature yesterday

Maximum temperature yesterday: 38 °F (at 3:00 PM)
Minimum temperature yesterday: 31 °F (at 7:00 AM)
Average temperature yesterday: 35 °F

Past Weeks' High & Low Weather Summary

 TemperatureHumidityPressure
High48 °F (Jan 16, 1:00 PM)98% (Jan 19, 10:00 AM)30.32 "Hg (Jan 19, 10:00 AM)
Low25 °F (Jan 24, 5:00 PM)51% (Jan 16, 1:00 AM)29.32 "Hg (Jan 29, 1:00 AM)
Average34 °F89%29.98 "Hg
* Reported Jan 14 10:00 AM — Jan 29 10:00 AM, Zielona Góra, Weather by CustomWeather, © 2014

Note: Actual official high and low records may vary slightly from our data, if they occured in-between our weather recording intervals... More about our weather records

Advertising

Zielona Góra weather history for previous 24 hours

 ConditionsComfort  
Time TempWeatherWind HumidityBarometerVisibility
10:00 AM
Jan 29
34 °FPassing clouds.5 mph81%29.35 "Hg25 mi
9:00 AM32 °FPassing clouds.5 mph89%29.35 "Hg25 mi
8:00 AM32 °FPassing clouds.5 mph91%29.35 "Hg25 mi
7:00 AM33 °FOvercast.5 mph93%29.32 "Hg22 mi
6:00 AM33 °FPassing clouds.3 mph95%29.32 "Hg9 mi
5:00 AM33 °FSnow flurries. Low clouds.6 mph93%29.32 "Hg3 mi
4:00 AM34 °FLow clouds.5 mph93%29.32 "Hg12 mi
3:00 AM34 °FLight rain. Low clouds.6 mph95%29.32 "Hg6 mi
2:00 AM33 °FLight snow. Low clouds.7 mph95%29.32 "Hg5 mi
1:00 AM33 °FLight snow. Low clouds.7 mph95%29.32 "Hg3 mi
12:00 AM35 °FLight snow. Overcast.8 mph85%29.35 "Hg9 mi
11:00 PM
Jan 28
36 °FOvercast.9 mph74%29.38 "Hg22 mi
10:00 PM36 °FOvercast.7 mph74%29.41 "Hg19 mi
9:00 PM36 °FOvercast.7 mph76%29.47 "Hg19 mi
8:00 PM35 °FOvercast.7 mph80%29.54 "Hg12 mi
7:00 PM35 °FOvercast.7 mph81%29.58 "Hg12 mi
6:00 PM35 °FPassing clouds.7 mph80%29.63 "Hg12 mi
5:00 PM36 °FOvercast.5 mph79%29.68 "Hg22 mi
4:00 PM37 °FOvercast.6 mph77%29.72 "Hg22 mi
3:00 PM38 °FOvercast.3 mph78%29.77 "Hg12 mi
2:00 PM37 °FOvercast.6 mph82%29.81 "Hg9 mi
1:00 PM37 °FOvercast.5 mph84%29.85 "Hg9 mi
12:00 PM36 °FOvercast.5 mph85%29.89 "Hg6 mi
Weather by CustomWeather, © 2014

See weather overviewHow to use our weather pages